Voltar ao catálogo

CAIYUN GUANGXE 01

AtivoCiênciaSSO
NORAD 69540·PAYLOAD·🇨🇳 China
Este nome de satélite ainda não foi confirmado por fontes oficiais.

Lançado Jun 15, 2026 de Jiuquan Satellite Launch Center

Loading…

Próximas Passagens (próximas 24 horas)

TLE

AtualizadoSource: Space-Track

Época: Sep 14, 2026, 11:11 UTC

1 69540U 26134C   26257.46633989  .00003722  00000-0  23763-3 0  9998
2 69540  97.6917 327.9255 0017733 337.4093  22.6353 15.09175629 13772

Acompanhe CAIYUN GUANGXE 01 em tempo real com AllMySat

Download on the App Store